Wichita, KS

4:44 AM CDT on March 27, 2017 (GMT -0500)
Wichita Eisenhower National Airport

Weather History for KICT - March, 2014

Change the Weather History Date:

Sunday, March 16, 2014

  Actual Average Record
Temperature  
Mean Temperature 40 °F 46 °F  
Max Temperature 48 °F 58 °F 83 °F (1908)
Min Temperature 31 °F 35 °F 9 °F (1895)
Degree Days  
Heating Degree Days 25 19  
Month to date heating degree days 427 334  
Since 1 July heating degree days 4346 3974  
Cooling Degree Days 0 0  
Month to date cooling degree days 0 0  
Year to date cooling degree days 0 0  
Moisture  
Dew Point 22 °F    
Average Humidity 53    
Maximum Humidity 78    
Minimum Humidity 28    
Precipitation  
Precipitation T in 0.09 in 1.78 in (1987)
Month to date precipitation 0.45 1.26  
Year to date precipitation 1.44 3.27  
Snow  
Snow T in 0.00 in 11.80 in (1970)
Month to date snowfall 3.2 1.3  
Since 1 July snowfall 22.7 13.7  
Snow Depth 0.00 in    
Sea Level Pressure  
Sea Level Pressure 30.12 in    
Wind  
Wind Speed 20 mph (North)    
Max Wind Speed 35 mph    
Max Gust Speed 44 mph    
Visibility 10 miles    
Events Snow    
T = Trace of Precipitation, MM = Missing Value Source: NWS Daily Summary

Daily Weather History Graph

Daily Weather History Graph

Search for Another Location

Airport or City:

Trip Planner

Search our weather history database for the weather conditions in past years. The results will help you decide how hot, cold, wet, or windy it might be!

Date:

Astronomy

Mar. 16, 2014 Rise Set
Actual Time 7:39 AM CDT 7:37 PM CDT
Civil Twilight 7:13 AM CDT 8:04 PM CDT
Nautical Twilight 6:42 AM CDT 8:34 PM CDT
Astronomical Twilight 6:12 AM CDT 9:05 PM CDT
Moon 7:55 PM CDT (3/16) 7:23 AM CDT (3/16)
Length of Visible Light 12h 50m
Length of Day
11h 58m
Full, 100% of the Moon is Illuminated
Mar 16
Full
Mar 16
Full
Mar 23
Last Quarter
Mar 30
New
Apr 7
First Quarter

Hourly Weather History & Observations

Time (CDT) Temp. Windchill Dew Point Humidity Pressure Visibility Wind Dir Wind Speed Gust Speed Precip Events Conditions
12:54 AM 42.8 °F 32.3 °F 30.2 °F 61% 29.95 in 10.0 mi North 29.9 mph 38.0 mph N/A   Overcast
1:54 AM 39.2 °F 28.0 °F 28.4 °F 65% 29.99 in 10.0 mi North 26.5 mph 38.0 mph N/A   Overcast
2:54 AM 37.4 °F 24.8 °F 28.4 °F 70% 30.01 in 10.0 mi North 31.1 mph 42.6 mph N/A   Overcast
3:31 AM 37.4 °F 25.4 °F 26.6 °F 65% 30.02 in 10.0 mi North 27.6 mph 42.6 mph N/A   Overcast
3:54 AM 37.4 °F 25.9 °F 26.6 °F 65% 30.02 in 10.0 mi North 25.3 mph 40.3 mph N/A   Overcast
4:54 AM 35.6 °F 23.0 °F 26.6 °F 70% 30.04 in 10.0 mi North 27.6 mph 40.3 mph N/A   Overcast
5:54 AM 35.6 °F 23.7 °F 28.4 °F 75% 30.06 in 10.0 mi North 24.2 mph 36.8 mph N/A   Overcast
6:41 AM 33.8 °F 20.1 °F 28.4 °F 81% 30.08 in 10.0 mi North 29.9 mph 38.0 mph N/A   Overcast
6:54 AM 33.8 °F 21.3 °F 26.6 °F 75% 30.08 in 10.0 mi North 24.2 mph 42.6 mph N/A   Overcast
7:20 AM 33.8 °F 20.8 °F 26.6 °F 75% 30.10 in 10.0 mi North 26.5 mph 39.1 mph N/A   Overcast
7:48 AM 33.8 °F 20.5 °F 26.6 °F 75% 30.11 in 10.0 mi North 27.6 mph 40.3 mph N/A   Overcast
8:48 AM 32.0 °F 18.6 °F 26.6 °F 80% 30.15 in 10.0 mi North 25.3 mph 34.5 mph N/A   Overcast
9:37 AM 32.0 °F 18.6 °F 24.8 °F 75% 30.19 in 10.0 mi North 25.3 mph 41.4 mph N/A Snow Light Snow
9:49 AM 30.2 °F 17.1 °F 24.8 °F 80% 30.19 in 10.0 mi North 21.9 mph 38.0 mph N/A Snow Light Snow
10:50 AM 33.8 °F 20.5 °F 24.8 °F 70% 30.23 in 10.0 mi North 27.6 mph 34.5 mph N/A   Overcast
11:48 AM 35.6 °F 24.0 °F 21.2 °F 56% 30.23 in 10.0 mi North 23.0 mph 39.1 mph N/A   Mostly Cloudy
12:11 PM 41.0 °F 30.9 °F 19.4 °F 42% 30.22 in 10.0 mi North 24.2 mph 38.0 mph N/A   Scattered Clouds
12:50 PM 42.8 °F 33.5 °F 17.6 °F 36% 30.21 in 10.0 mi North 23.0 mph 36.8 mph N/A   Scattered Clouds
1:50 PM 44.6 °F 35.9 °F 17.6 °F 34% 30.19 in 10.0 mi North 23.0 mph 33.4 mph N/A   Partly Cloudy
2:48 PM 46.4 °F 37.9 °F 17.6 °F 32% 30.16 in 10.0 mi North 25.3 mph 32.2 mph N/A   Partly Cloudy
3:50 PM 48.2 °F - 17.6 °F 30% 30.14 in 10.0 mi North 18.4 mph 27.6 mph N/A   Clear
4:50 PM 46.4 °F 39.2 °F 17.6 °F 32% 30.13 in 10.0 mi North 18.4 mph 27.6 mph N/A   Clear
5:52 PM 46.4 °F 40.1 °F 15.8 °F 29% 30.13 in 10.0 mi North 15.0 mph 24.2 mph N/A   Clear
6:53 PM 44.6 °F 38.4 °F 15.8 °F 31% 30.13 in 10.0 mi North 12.7 mph - N/A   Clear
7:50 PM 42.8 °F 38.0 °F 15.8 °F 34% 30.13 in 10.0 mi North 8.1 mph - N/A   Clear
8:53 PM 39.2 °F 34.2 °F 17.6 °F 42% 30.12 in 10.0 mi North 6.9 mph - N/A   Clear
9:53 PM 37.4 °F 31.4 °F 17.6 °F 45% 30.12 in 10.0 mi NNE 8.1 mph - N/A   Clear
10:54 PM 35.6 °F 31.7 °F 17.6 °F 48% 30.12 in 10.0 mi North 4.6 mph - N/A   Clear
11:53 PM 35.6 °F 31.7 °F 17.6 °F 48% 30.09 in 10.0 mi NE 4.6 mph - N/A   Scattered Clouds